Regional Weather Roundup
Issued by NWS

Home | Current Version | Previous Version | Graphics & Text | Print | Product List | Glossary On
Versions: 1 2 3 4 5 6 7 8 9 10 11 12 13 14 15 16 17 18 19 20 21 22 23 24 25 26 27 28 29 30 31 32 33 34 35 36 37 38 39 40 41 42 43 44 45 46 47 48 49 50
540
ASUS45 KTFX 061210
RWRMT
MONTANA REGIONAL WEATHER ROUNDUP
NATIONAL WEATHER SERVICE GREAT FALLS MT
500 AM MST TUE DEC 06 2016

NOTE: "FAIR" INDICATES FEW OR NO CLOUDS BELOW 12000 FEET WITH NO
SIGNIFICANT WEATHER AND/OR OBSTRUCTIONS TO VISIBILITY.

MTZ001>007-043-061300-
WEST OF THE DIVIDE

CITY           SKY/WX    TMP DP  RH WIND       PRES   REMARKS
KALISPELL      MOCLDY    16   8  71 N15       29.99S WCI   1
MISSOULA       CLOUDY    21  12  68 SE12      29.96S WCI   9
BUTTE          CLOUDY     4  -2  76 CALM      29.85F
MULLAN PASS    CLOUDY     9   6  88 SE7       29.74F WCI  -2
ANACONDA         N/A      3  -2  78 SW3       29.89S
DEER LODGE       N/A      5   1  85 CALM      29.92F
EUREKA           N/A     14  10  85 CALM      30.05R
HAMILTON         N/A     16   7  67 S5        29.92F
LIBBY            N/A     14  10  85 CALM      30.02S
PLAINS           N/A     15   7  71 CALM      30.00S
RONAN            N/A     13   8  80 CALM      29.99R
$$

MTZ008-052>055-061300-
SOUTHWEST MONTANA

CITY           SKY/WX    TMP DP  RH WIND       PRES   REMARKS
BOZEMAN        CLOUDY    14  11  87 NW6       29.95S WCI   5
DILLON         CLOUDY     3  -5  69 S10       29.87S WCI -12
THREE FORKS      N/A     13 -27  15 NE2       29.96F
TWIN BRIDGES     N/A      5  -7  58 CALM      29.90F
$$

MTZ009-010-012-014-046-048-049-054-061300-
EAST SLOPES AND CENTRAL MONTANA

CITY           SKY/WX    TMP DP  RH WIND       PRES   REMARKS
CUT BANK       CLOUDY    -3  -7  82 NW14      30.11S WCI -22
GREAT FALLS    CLOUDY     3  -2  79 N8        30.12R WCI -10
MALMSTROM AFB  FLURRIES   2  -1  85 NE6       30.15R WCI  -9
HELENA         CLOUDY     9   2  73 W6        30.04S WCI  -1
AUGUSTA        FLURRIES   1  -3  83 NE12      30.04S WCI -16
BOWMANS CRNR   FLURRIES   1  -2  88 N3        30.03S
CHOTEAU          N/A      1  -2  85 MISG      30.12S
CONRAD           N/A      0  -5  79 W6        30.12S WCI -11
FAIRFIELD      FLURRIES   2  -3  81 N8        30.10R WCI -12
POWER          FLURRIES   0  -5  80 N9        30.11R WCI -16
RAYNESFORD     FLURRIES   2   0  89 NW6       30.08S WCI  -9
ULM            FLURRIES   5   2  87 N10       30.12S WCI -10
$$

MTZ011-013-016-021-045-047-050-051-061300-
NORTH CENTRAL MONTANA

CITY           SKY/WX    TMP DP  RH WIND       PRES   REMARKS
HAVRE          MOCLDY     0  -7  72 NW12      30.22R WCI -17
LEWISTOWN      CLOUDY     3  -1  83 NW8       30.05R WCI -10
CHINOOK          N/A      1  -6  71 W14       30.21S WCI -17
DENTON           N/A      1  -3  84 NW16G33   30.06R WCI -18
GEYSER         FLURRIES   3  -1  84 W18G28    30.04R WCI -17
GRASS RANGE    FLURRIES   4   0  83 W13       30.01S WCI -13
JUDITH GAP     FLURRIES   1  -3  83 N16       29.97S WCI -19
ROY              N/A      1  -2  86 MISG      30.06R
STANFORD         N/A     -1  -4  84 W5        30.02R
WINIFRED       CLOUDY     2  -1  89 MISG      30.08R
$$

MTZ017>020-022>027-061-062-061300-
NORTHEAST MONTANA

CITY           SKY/WX    TMP DP  RH WIND       PRES   REMARKS
GLASGOW        CLOUDY     2  -5  72 NW22      30.10S WCI -20
JORDAN           N/A      3  -3  76 NW17G26   30.09F WCI -17
SIDNEY         FLURRIES   5  -1  76 NW23G29   30.03R WCI -17
WOLF POINT     CLOUDY     4  -5  66 W15       30.11R WCI -14
PLENTYWOOD       N/A      1  -2  85 NW26      29.96R WCI -23
POPLAR           N/A      3  -6  66 NW15      30.08R WCI -15
SCOBEY           N/A      0 -11  60 NW15      30.00S WCI -19
$$

MTZ028>42-056>058-061300-
SOUTHCENTRAL AND SOUTHEAST MONTANA

CITY           SKY/WX    TMP DP  RH WIND       PRES   REMARKS
BAKER          CLOUDY     3  -2  79 W23G32    29.97R WCI -19
BILLINGS       FLURRIES   6   2  83 NE6       30.04S WCI  -4
LIVINGSTON     CLOUDY     7   2  80 E6        29.94R WCI  -3
MILES CITY     CLEAR      4  -3  73 W14       30.09S WCI -14
BIG TIMBER     CLOUDY     7   1  78 NE7       29.99S WCI  -5
EKALAKA          N/A     -1  -9  69 W21       29.93R WCI -24
FORSYTH          N/A      3   0  85 W8        30.10F WCI -10
HARLOWTON        N/A      3  -2  81 N23       29.97F WCI -20
LAUREL           N/A      9  -1  63 N6        30.01R WCI  -1
$$

REGIONAL REPORTS...DAKOTAS

CITY           SKY/WX    TMP DP  RH WIND       PRES   REMARKS
WILLISTON      CLOUDY     7   1  76 NW16      29.99R HAZE    WCI -11
MINOT          SNOW      11   8  88 W40G49    29.74R VSB 1/4 WCI -14
DICKINSON      LGT SNOW   4  -1  80 NW35G41   29.86R VSB 1   WCI -22
BEACH          LGT SNOW   3   0  85 NW25G31   29.99R WCI -20
CROSBY         LGT SNOW   7   3  85 NW26G37   29.95R WCI -16
TIOGA          LGT SNOW   5   5 100 NW32G40   29.90R VSB 1   WCI -20
WATFORD CITY   LGT SNOW   5   1  85 NW17G28   29.96R WCI -14
BISMARCK       SNOW      11  10  96 NW29G43   29.77R VSB 1/2 WCI -11
GRAND FORKS    LGT SNOW  30  27  88 NW18      29.30F VSB 3/4 WCI  18
FARGO          LGT SNOW  26  23  88 S13       29.39F FOG     WCI  15
BUFFALO SD       N/A      4  -2  76 NW33G41   29.85S WCI -22
RAPID CITY     CLEAR     11   2  67 N12       29.93S WCI  -3
$$

REGIONAL REPORTS...WYOMING/IDAHO/WASHINGTON

CITY           SKY/WX    TMP DP  RH WIND       PRES   REMARKS
GILLETTE       PTCLDY    -6  -8  91 W8        29.96S WCI -21
SHERIDAN       LGT SNOW   9   5  84 NW3       30.01R FOG
BUFFALO WY     LGT SNOW   5   0  79 NW8       29.92S WCI  -8
CODY           CLEAR      0  -2  91 S3        29.92F
YELLOWSTONE LA   N/A     -5  -8  87 NW3       29.79F
IDAHO FALLS    CLEAR      4  -1  80 N5        29.93F
SALMON         CLOUDY     7   1  78 CALM      29.95S
BOISE          CLOUDY    24  11  57 SE12      29.90F WCI  13
SPOKANE        CLOUDY    25  17  72 N9        29.94R WCI  15
$$

REGIONAL REPORTS...ALBERTA

CITY           SKY/WX    TMP DP  RH WIND       PRES   REMARKS
EDMONTON       CLOUDY    -2 -15  55 NW9       30.30R WCI -18
CALGARY        MOCLDY    -6 -15  65 N15G21    30.17R WCI -27
LETHBRIDGE     MOCLDY    -4  -9  77 NW9       30.23R WCI -20
MEDICINE HAT   FLURRIES  -4  -9  77 W10       30.25S WCI -21
WATERTON GATE    N/A     -8 -13  77 N2          N/A
CARDSTON         N/A     -6 -11  77 N3          N/A
MILK RIVER       N/A     -4  -8  84 N15         N/A  WCI -25
$$

REGIONAL REPORTS...SASKATCHEWAN

CITY           SKY/WX    TMP DP  RH WIND       PRES   REMARKS
SWIFT CURRENT  FLURRIES  -6  -8  92 W14G20    30.07R WCI -26
REGINA         FLURRIES   7   1  78 NW26      29.99F WCI -16
SASKATOON      FLURRIES   1  -6  71 NW20G26   30.13R WCI -20
ASSINIBOIA       N/A     -4 -11  71 NW16        N/A  WCI -25
$$




USA.gov is the U.S. government's official web portal to all federal, state and local government web resources and services.